This is the latest recevied weather packets stored in our database for station/object KB1MS. If no packets are shown the sender has not sent any weather packets the latest 10 day(s).
| Time | Temp. | Humidity | Pressure | Rain* | Wind** | Luminosity | Snow |
|---|---|---|---|---|---|---|---|
| 1787790131 | 21.67° C | 74% | 1016.9 hPa | 0 mm | - | 0 W/m² | - |
| 1787789827 | 21.67° C | 73% | 1016.9 hPa | 0 mm | - | 0 W/m² | - |
| 1787789526 | 22.22° C | 73% | 1017 hPa | 0 mm | - | 0 W/m² | - |
| 1787789224 | 22.22° C | 73% | 1016.7 hPa | 0 mm | - | 0 W/m² | - |
| 1787788920 | 22.22° C | 73% | 1016.8 hPa | 0 mm | - | 0 W/m² | - |
| 1787788617 | 22.78° C | 72% | 1016.6 hPa | 0 mm | - | 0 W/m² | - |
| 1787788312 | 22.78° C | 71% | 1016.6 hPa | 0 mm | - | 0 W/m² | - |
| 1787788009 | 22.78° C | 70% | 1016.5 hPa | 0 mm | - | 0 W/m² | - |
| 1787787709 | 23.33° C | 70% | 1016.7 hPa | 0 mm | - | 1 W/m² | - |
| 1787787407 | 23.33° C | 69% | 1016.4 hPa | 0 mm | - | 1 W/m² | - |
| 1787787107 | 23.33° C | 69% | 1016.3 hPa | 0 mm | - | 2 W/m² | - |
| 1787786807 | 23.89° C | 68% | 1016.3 hPa | 0 mm | - | 3 W/m² | - |
| 1787786502 | 23.89° C | 67% | 1016.5 hPa | 0 mm | - | 5 W/m² | - |
| 1787786197 | 24.44° C | 66% | 1016.2 hPa | 0 mm | - | 7 W/m² | - |
| 1787785893 | 25° C | 65% | 1016.2 hPa | 0 mm | - | 10 W/m² | - |
| 1787785588 | 25° C | 64% | 1016.3 hPa | 0 mm | - | 14 W/m² | - |
| 1787785283 | 26.11° C | 62% | 1016.2 hPa | 0 mm | - | 18 W/m² | - |
| 1787784982 | 26.67° C | 60% | 1016.1 hPa | 0 mm | - | 26 W/m² | - |
| 1787784682 | 28.33° C | 57% | 1016.2 hPa | 0 mm | - | 24 W/m² | - |
| 1787784381 | 28.89° C | 55% | 1016.1 hPa | 0 mm | - | 41 W/m² | - |
| 1787784075 | 28.89° C | 54% | 1016.2 hPa | 0 mm | - | 52 W/m² | - |
| 1787783772 | 28.33° C | 55% | 1016.1 hPa | 0 mm | - | 61 W/m² | - |
| 1787783472 | 28.33° C | 57% | 1016.1 hPa | 0 mm | - | 55 W/m² | - |
| 1787783168 | 27.22° C | 59% | 1016.4 hPa | 0 mm | - | 47 W/m² | - |
| 1787782862 | 27.78° C | 55% | 1016.3 hPa | 0 mm | - | 37 W/m² | - |
* Rain latest hour (hover to see other rain measurements)
** Current wind speed in m/s (hover to see current wind gust speed)